Regional Weather Roundup
Issued by NWS

Home | Current Version | Previous Version | Text Only | Print | Product List | Glossary On
Versions: 1 2 3 4 5 6 7 8 9 10 11 12 13 14 15 16 17 18 19 20 21 22 23 24 25 26 27 28 29 30 31 32 33 34 35 36 37 38 39 40 41 42 43 44 45 46 47 48 49 50
000
ASUS46 KSEW 240510
RWRWA

WASHINGTON REGIONAL WEATHER ROUNDUP
NATIONAL WEATHER SERVICE SEATTLE WA
1000 PM PDT SAT JUL 23 2016

NOTE:"FAIR" INDICATES FEW OR NO CLOUDS BELOW 12,000 FEET WITH NO
SIGNIFICANT WEATHER AND/OR OBSTRUCTIONS TO VISIBILITY.

WAZ505-507>509-240600-
SEATTLE, TACOMA, EVERETT, AND VICINITY

CITY           SKY/WX    TMP DP  RH WIND       PRES   REMARKS
EVERETT        CLEAR     59  51  75 N6        30.23R
BOEING FIELD   CLEAR     67  52  58 CALM      30.20R
RENTON         CLEAR     67  57  70 NW10      30.19S
SEATAC AIRPORT CLEAR     64  56  75 N8        30.21S
JBLM-MCCHORD   CLEAR     64  55  73 NE2       30.20R
PUYALLUP       FAIR      61  55  82 CALM      30.21R
BREMERTON      CLEAR     55  54  94 CALM      30.23R
JBLM-FT LEWIS  CLEAR     65  56  73 N7        30.19S
TACOMA NARROWS CLEAR     64  53  67 N7        30.21S
$$

WAZ001-503-506-510-514-515-240600-
NORTH INTERIOR

CITY           SKY/WX    TMP DP  RH WIND       PRES   REMARKS
BELLINGHAM     CLEAR     61  54  77 S3        30.20S
FRIDAY HARBOR  CLEAR     59  50  72 SW3       30.21S
EASTSOUND      CLEAR     63  52  67 CALM      30.19R
PORT ANGELES   CLEAR     58  51  78 W10       30.23F
EDIZ HOOK      FAIR      58  51  77 W9        30.23S
PORT TOWNSEND  FAIR      59  52  77 VRB5      30.22S
NAS WHIDBEY    PTCLDY    57  50  77 SW7       30.26R
ARLINGTON      CLEAR     61  46  59 CALM      30.23S
BURLINGTON     CLEAR     59  52  77 CALM      30.22R
$$

WAZ020-022-039-040-504-511-512-240600-
SOUTHWEST INTERIOR

CITY           SKY/WX    TMP DP  RH WIND       PRES   REMARKS
SHELTON        CLOUDY    64  54  69 W5        30.18S
OLYMPIA        CLEAR     65  53  65 NW8       30.19S
CHEHALIS       FAIR      63  55  77 VRB5      30.20R
KELSO          CLEAR     64  55  72 VRB3      30.18S
VANCOUVER      CLEAR     66  54  65 NW6       30.15S
SCAPPOOSE, OR  CLEAR     64  53  67 NW6       30.15S
PORTLAND, OR   CLEAR     66  54  65 NW7       30.16S
$$

WAZ021-516-517-240600-
WASHINGTON COAST

CITY           SKY/WX    TMP DP  RH WIND       PRES   REMARKS
FORKS          CLEAR     57  54  89 NW5       30.24S
HOQUIAM        CLEAR     60  55  83 W6        30.22S
ASTORIA, OR    CLEAR     62  56  80 MISG      30.21S
$$

WAZ019-023-024-040-518-519-240600-
CASCADE MOUNTAINS AND COLUMBIA GORGE

CITY           SKY/WX    TMP DP  RH WIND       PRES   REMARKS
STAMPEDE PASS  MOCLDY    49  46  90 SW7       30.25S
TROUTDALE, OR  CLEAR     66  56  70 W3        30.15S
THE DALLES, OR CLEAR     70  52  52 NW14      30.06R
$$

WAZ026-027-041>044-520-521-240600-
EAST SLOPES

CITY           SKY/WX    TMP DP  RH WIND       PRES   REMARKS
OMAK           CLEAR     67  45  45 W8        30.06R
WENATCHEE      CLEAR     71  49  45 NW10      30.09R
ELLENSBURG     CLEAR     65  49  56 NW20G29   30.11R
YAKIMA         CLEAR     74  44  34 NW10      30.08R
$$

WAZ028-034-035-240600-
COLUMBIA BASIN

CITY           SKY/WX    TMP DP  RH WIND       PRES   REMARKS
EPHRATA        CLEAR     70  45  40 SW5       30.07R
MOSES LAKE     CLEAR     75  44  33 S6        30.07R
PASCO          CLEAR     70  49  47 CALM      30.04R
HERMISTON, OR  CLEAR     67  43  41 SE6       30.04R
$$

WAZ036>038-240600-
NORTHEAST WASHINGTON

CITY           SKY/WX    TMP DP  RH WIND       PRES   REMARKS
SPOKANE GEIGER PTCLDY    71  43  36 CALM      30.12R
SPOKANE FELTS  CLEAR     63  48  58 N5        30.11R
FAIRCHILD AFB  CLEAR     69  42  37 NE3       30.12R
COEURDALENE,ID CLEAR     64  48  55 NE3       30.10S
DEER PARK      CLEAR     56  47  71 NE3       30.12R
$$

WAZ029>033-240600-
SOUTHEAST WASHINGTON

CITY           SKY/WX    TMP DP  RH WIND       PRES   REMARKS
PULLMAN        CLEAR     56  44  64 CALM      30.15R
LEWISTON, ID   CLEAR     72  43  35 S5        30.08R
WALLA WALLA    CLEAR     68  42  38 E8        30.07R
PENDLETON, OR  CLEAR     66  35  31 NE6       30.08R
$$



USA.gov is the U.S. government's official web portal to all federal, state and local government web resources and services.